Location: *
(49.9853°N, 3.5569°E)
Time: 06:04:22
(UTC+00:00)

Cosmos 1758 Rocket - Pass Details

Date: 22 September 2019
Orbit: 602 x 636 km, 82.5° (Epoch: 21 October)

Event Time Altitude Azimuth Distance (km) Brightness Sun altitude
Rises 20:17:47 0° 352° (N) 2,869 7.6 -24.2°
Reaches altitude 10° 20:20:01 10° 355° (N) 1,963 6.6 -24.5°
Enters shadow 20:23:23 49° 20° (NNE) 783 4.1 -24.9°
